Time,TemperatureF,DewpointF,PressureIn,WindDirection,WindDirectionDegrees,WindSpeedMPH,WindSpeedGustMPH,Humidity,HourlyPrecipIn,Conditions,Clouds,dailyrainin,SoftwareType,DateUTC
2013-09-03 08:53:00,62.0,58.0,25.83,ESE,111,1.0,2.0,86,0.00,,,0.00,,2013-09-03 15:53:00,
2013-09-03 09:14:00,63.0,58.0,25.83,ENE,78,2.0,5.0,83,0.00,,,0.00,,2013-09-03 16:14:00,
2013-09-03 09:24:00,63.0,58.0,25.83,East,91,1.0,6.0,83,0.00,,,0.00,,2013-09-03 16:24:00,
2013-09-03 09:54:00,65.0,58.0,25.83,ESE,106,2.0,5.0,78,0.00,,,0.00,,2013-09-03 16:54:00,
2013-09-03 10:12:00,66.0,59.0,25.83,East,96,2.0,4.0,77,0.00,,,0.00,,2013-09-03 17:12:00,
2013-09-03 10:23:00,66.0,59.0,25.83,East,96,2.0,4.0,77,0.00,,,0.00,,2013-09-03 17:23:00,
2013-09-03 10:52:00,69.0,58.0,25.83,SSE,163,0.0,5.0,69,0.00,,,0.00,,2013-09-03 17:52:00,
2013-09-03 11:11:00,70.0,60.0,25.83,SSW,209,3.0,12.0,70,0.00,,,0.00,,2013-09-03 18:11:00,
2013-09-03 11:21:00,70.0,60.0,25.83,SSW,209,3.0,12.0,70,0.00,,,0.00,,2013-09-03 18:21:00,
2013-09-03 11:52:00,68.0,59.0,25.83,SSE,161,6.0,13.0,72,0.00,,,0.00,,2013-09-03 18:52:00,
2013-09-03 12:11:00,68.0,59.0,25.83,SSE,164,7.0,14.0,73,0.00,,,0.00,,2013-09-03 19:11:00,
2013-09-03 12:22:00,68.0,59.0,25.83,SSE,164,7.0,14.0,73,0.00,,,0.00,,2013-09-03 19:22:00,
2013-09-03 12:32:00,68.0,59.0,25.83,SSE,164,7.0,14.0,73,0.00,,,0.00,,2013-09-03 19:32:00,
2013-09-03 13:11:00,68.0,59.0,25.83,South,185,5.0,19.0,74,0.00,,,0.00,,2013-09-03 20:11:00,
2013-09-03 13:22:00,68.0,60.0,25.83,South,175,4.0,16.0,75,0.00,,,0.00,,2013-09-03 20:22:00,
2013-09-03 13:32:00,68.0,60.0,25.83,South,175,4.0,16.0,75,0.00,,,0.00,,2013-09-03 20:32:00,
2013-09-03 13:42:00,68.0,60.0,25.83,South,175,4.0,16.0,75,0.00,,,0.00,,2013-09-03 20:42:00,
2013-09-03 13:52:00,68.0,60.0,25.83,South,175,4.0,16.0,75,0.00,,,0.00,,2013-09-03 20:52:00,
2013-09-03 14:22:00,67.0,60.0,25.83,South,186,7.0,14.0,78,0.00,,,0.00,,2013-09-03 21:22:00,
2013-09-03 14:54:00,68.0,61.0,25.83,South,177,7.0,18.0,79,0.00,,,0.00,,2013-09-03 21:54:00,
2013-09-03 15:23:00,68.0,61.0,25.83,SW,224,2.0,21.0,79,0.00,,,0.00,,2013-09-03 22:23:00,
2013-09-03 15:52:00,68.0,61.0,25.83,South,174,7.0,19.0,79,0.00,,,0.00,,2013-09-03 22:52:00,
2013-09-03 16:12:00,68.0,62.0,25.83,South,182,7.0,15.0,80,0.00,,,0.00,,2013-09-03 23:12:00,
2013-09-03 16:22:00,68.0,62.0,25.83,South,182,7.0,15.0,80,0.00,,,0.00,,2013-09-03 23:22:00,
2013-09-03 16:42:00,67.0,61.0,25.83,SSE,166,4.0,17.0,82,0.00,,,0.00,,2013-09-03 23:42:00,
2013-09-03 16:53:00,67.0,61.0,25.83,SSE,166,4.0,17.0,82,0.00,,,0.00,,2013-09-03 23:53:00,
2013-09-03 17:11:00,67.0,62.0,25.83,South,169,6.0,21.0,84,0.00,,,0.00,,2013-09-04 00:11:00,
2013-09-03 17:22:00,67.0,62.0,25.83,South,185,4.0,14.0,84,0.00,,,0.00,,2013-09-04 00:22:00,
2013-09-03 17:42:00,66.0,61.0,25.83,SSE,158,7.0,16.0,85,0.00,,,0.00,,2013-09-04 00:42:00,
2013-09-03 17:52:00,65.0,61.0,25.83,South,181,2.0,10.0,86,0.00,,,0.00,,2013-09-04 00:52:00,
2013-09-03 18:11:00,64.0,61.0,25.83,SSW,212,4.0,10.0,89,0.00,,,0.00,,2013-09-04 01:11:00,
2013-09-03 18:21:00,64.0,61.0,25.83,ESE,109,1.0,8.0,89,0.00,,,0.00,,2013-09-04 01:21:00,
2013-09-03 18:42:00,64.0,61.0,25.83,South,172,3.0,13.0,89,0.00,,,0.00,,2013-09-04 01:42:00,
2013-09-03 18:52:00,64.0,61.0,25.83,South,172,3.0,13.0,89,0.00,,,0.00,,2013-09-04 01:52:00,
2013-09-03 19:11:00,64.0,61.0,25.83,SSE,157,1.0,10.0,90,0.00,,,0.00,,2013-09-04 02:11:00,
2013-09-03 19:22:00,64.0,61.0,25.83,East,80,0.0,6.0,91,0.00,,,0.00,,2013-09-04 02:22:00,
2013-09-03 19:42:00,63.0,60.0,25.83,ESE,103,0.0,4.0,91,0.00,,,0.00,,2013-09-04 02:42:00,
2013-09-03 19:52:00,63.0,60.0,25.83,ESE,103,0.0,4.0,91,0.00,,,0.00,,2013-09-04 02:52:00,